RYR12NB EPMO-LGAV

Flight info

Callsign RYR12NB
Flight time N/A
Altitude 34000
Route EVINA M66 BABKO/N0462F350 DCT ULPUK DCT LAHOR DCT PARAK DCT IRGOR DCT IBISI DCT KRATO DCT MAKED DCT SIGFO UM749 ROPOX
Aircraft B738/M-SDE2E3FGHIRWXY/LB1

Departure

Time 2026-05-08 16:19
Airport Warsaw Modlin Airport (EPMO)

Arrival

Time N/A
Airport Athens Eleftherios Venizelos International Airport (LGAV)
Time Latitude Longitude Altitude Speed Heading
2026-05-08 15:45 52.44741 20.65181 337 ft 0 kts 206°
2026-05-08 16:02 52.44741 20.65182 337 ft 2 kts 206°
2026-05-08 16:02 52.44757 20.65186 332 ft 2 kts 165°
2026-05-08 16:03 52.44771 20.65173 334 ft 2 kts 124°
2026-05-08 16:03 52.44777 20.65148 337 ft 2 kts 98°
2026-05-08 16:03 52.44778 20.65133 332 ft 1 kts 86°
2026-05-08 16:03 52.44778 20.65132 332 ft 0 kts 85°
2026-05-08 16:12 52.44779 20.65134 337 ft 1 kts 82°
2026-05-08 16:12 52.44782 20.65169 335 ft 6 kts 81°
2026-05-08 16:13 52.44791 20.65269 337 ft 12 kts 81°
2026-05-08 16:13 52.44807 20.65430 333 ft 17 kts 81°
2026-05-08 16:13 52.44822 20.65595 334 ft 16 kts 82°
2026-05-08 16:13 52.44840 20.65802 333 ft 20 kts 81°
2026-05-08 16:14 52.44863 20.66050 337 ft 24 kts 81°
2026-05-08 16:14 52.44891 20.66337 337 ft 27 kts 81°
2026-05-08 16:14 52.44920 20.66656 337 ft 28 kts 81°
2026-05-08 16:14 52.44949 20.66967 336 ft 26 kts 82°
2026-05-08 16:15 52.45025 20.67076 337 ft 16 kts 355°
2026-05-08 16:15 52.45133 20.67049 335 ft 15 kts 351°
2026-05-08 16:15 52.45138 20.67048 336 ft 0 kts 351°
2026-05-08 16:15 52.45139 20.67047 333 ft 1 kts 351°
2026-05-08 16:16 52.45153 20.67044 336 ft 4 kts 351°
2026-05-08 16:16 52.45190 20.67031 337 ft 0 kts 344°
2026-05-08 16:16 52.45209 20.67021 337 ft 9 kts 342°
2026-05-08 16:17 52.45277 20.66953 338 ft 15 kts 296°
2026-05-08 16:17 52.45279 20.66856 335 ft 0 kts 262°
2026-05-08 16:18 52.45273 20.66792 336 ft 31 kts 261°
2026-05-08 16:18 52.45192 20.65921 335 ft 120 kts 262°
2026-05-08 16:18 52.45026 20.64157 434 ft 185 kts 264°
2026-05-08 16:19 52.44839 20.61961 1344 ft 197 kts 265°
2026-05-08 16:19 52.44634 20.59789 2617 ft 195 kts 262°
2026-05-08 16:19 52.44378 20.57588 3563 ft 194 kts 260°
2026-05-08 16:19 52.44216 20.55365 4137 ft 204 kts 278°
2026-05-08 16:20 52.44919 20.53286 4481 ft 222 kts 320°
2026-05-08 16:20 52.46421 20.52238 4750 ft 253 kts 353°
2026-05-08 16:20 52.48226 20.52097 5437 ft 263 kts 356°
2026-05-08 16:20 52.50070 20.51952 6243 ft 268 kts 349°
2026-05-08 16:21 52.51729 20.50740 6988 ft 268 kts 315°
2026-05-08 16:21 52.52698 20.48186 7839 ft 266 kts 285°
2026-05-08 16:21 52.52852 20.45178 8672 ft 268 kts 262°
2026-05-08 16:21 52.52200 20.42301 9480 ft 274 kts 237°
2026-05-08 16:22 52.50808 20.40148 10266 ft 281 kts 212°
2026-05-08 16:22 52.48939 20.38905 10687 ft 302 kts 198°
2026-05-08 16:22 52.46809 20.38075 10869 ft 327 kts 194°
2026-05-08 16:22 52.44496 20.37344 11044 ft 350 kts 192°
2026-05-08 16:23 52.42025 20.36598 11225 ft 371 kts 192°
2026-05-08 16:23 52.39439 20.35809 11650 ft 382 kts 192°
2026-05-08 16:23 52.36813 20.34986 12307 ft 386 kts 193°
2026-05-08 16:23 52.34204 20.34147 13010 ft 389 kts 193°
2026-05-08 16:24 52.31537 20.33272 13697 ft 392 kts 193°
2026-05-08 16:24 52.28850 20.32378 14307 ft 396 kts 193°
2026-05-08 16:24 52.26142 20.31469 14910 ft 399 kts 194°
2026-05-08 16:24 52.23411 20.30549 15521 ft 402 kts 194°
2026-05-08 16:25 52.20663 20.29621 16091 ft 405 kts 194°
2026-05-08 16:25 52.17895 20.28687 16666 ft 408 kts 194°
2026-05-08 16:25 52.15094 20.27742 17247 ft 412 kts 195°
2026-05-08 16:25 52.12283 20.26796 17819 ft 415 kts 195°
2026-05-08 16:26 52.09437 20.25839 18383 ft 418 kts 195°
2026-05-08 16:26 52.06574 20.24877 18873 ft 421 kts 195°
2026-05-08 16:26 52.03689 20.23910 19342 ft 424 kts 195°
2026-05-08 16:26 52.00834 20.22954 19815 ft 426 kts 195°
2026-05-08 16:27 51.97917 20.21979 20271 ft 429 kts 195°
2026-05-08 16:27 51.94974 20.20997 20744 ft 432 kts 194°
2026-05-08 16:27 51.92021 20.20013 21198 ft 434 kts 194°
2026-05-08 16:27 51.89046 20.19022 21641 ft 437 kts 194°
2026-05-08 16:28 51.86055 20.18028 22073 ft 440 kts 194°
2026-05-08 16:28 51.83051 20.17030 22499 ft 442 kts 194°
2026-05-08 16:28 51.80024 20.16026 22917 ft 445 kts 194°
2026-05-08 16:28 51.76982 20.15019 23326 ft 448 kts 194°
2026-05-08 16:29 51.73950 20.14016 23719 ft 450 kts 194°
2026-05-08 16:29 51.70867 20.12998 24050 ft 453 kts 194°
2026-05-08 16:29 51.67771 20.11977 24376 ft 455 kts 194°
2026-05-08 16:29 51.64662 20.10953 24701 ft 457 kts 194°
2026-05-08 16:30 51.61533 20.09924 25017 ft 459 kts 195°
2026-05-08 16:30 51.58392 20.08893 25326 ft 461 kts 195°
2026-05-08 16:30 51.55280 20.07872 25627 ft 463 kts 195°
2026-05-08 16:30 51.52116 20.06836 25911 ft 465 kts 195°
2026-05-08 16:31 51.48940 20.05798 26228 ft 466 kts 195°
2026-05-08 16:31 51.45753 20.04758 26570 ft 467 kts 195°
2026-05-08 16:31 51.42575 20.03722 26958 ft 466 kts 195°
2026-05-08 16:31 51.39396 20.02688 27398 ft 465 kts 195°
2026-05-08 16:32 51.36223 20.01658 27817 ft 464 kts 195°
2026-05-08 16:32 51.33060 20.00631 28213 ft 463 kts 195°
2026-05-08 16:32 51.29940 19.99620 28599 ft 463 kts 196°
2026-05-08 16:32 51.26784 19.98598 29019 ft 461 kts 196°
2026-05-08 16:33 51.23648 19.97586 29597 ft 457 kts 196°
2026-05-08 16:33 51.20535 19.96581 30049 ft 455 kts 196°
2026-05-08 16:33 51.17430 19.95580 30357 ft 456 kts 196°
2026-05-08 16:33 51.14310 19.94573 30641 ft 457 kts 196°
2026-05-08 16:34 51.11190 19.93570 30981 ft 456 kts 196°
2026-05-08 16:34 51.08089 19.92574 31333 ft 454 kts 196°
2026-05-08 16:34 51.04991 19.91580 31646 ft 454 kts 196°
2026-05-08 16:34 51.01895 19.90589 31997 ft 452 kts 196°
2026-05-08 16:35 50.98817 19.89606 32365 ft 451 kts 196°
2026-05-08 16:35 50.95782 19.88636 32665 ft 450 kts 196°
2026-05-08 16:35 50.92668 19.87642 32937 ft 451 kts 196°
2026-05-08 16:35 50.89638 19.86676 33235 ft 450 kts 196°
2026-05-08 16:36 50.86565 19.85699 33562 ft 449 kts 196°
2026-05-08 16:36 50.83499 19.84725 33868 ft 449 kts 196°
2026-05-08 16:36 50.80437 19.83754 34118 ft 447 kts 197°
2026-05-08 16:36 50.77377 19.82784 34116 ft 449 kts 197°
2026-05-08 16:37 50.71259 19.80849 34133 ft 448 kts 197°
2026-05-08 16:37 50.65151 19.78924 34133 ft 446 kts 197°
2026-05-08 16:38 50.59061 19.77009 34132 ft 445 kts 197°
2026-05-08 16:38 50.52997 19.75107 34122 ft 444 kts 197°
2026-05-08 16:39 50.46941 19.73212 34135 ft 443 kts 197°
2026-05-08 16:39 50.40932 19.71336 34124 ft 443 kts 197°
2026-05-08 16:40 50.34885 19.69454 34104 ft 442 kts 196°
2026-05-08 16:40 50.28848 19.67579 34122 ft 442 kts 196°
2026-05-08 16:41 50.22821 19.65713 34131 ft 442 kts 196°
2026-05-08 16:42 50.13767 19.62918 34126 ft 442 kts 197°
2026-05-08 16:42 50.07736 19.61063 34123 ft 441 kts 196°
2026-05-08 16:43 50.01712 19.59214 34119 ft 441 kts 196°
2026-05-08 16:43 49.95730 19.57383 34122 ft 441 kts 196°
2026-05-08 16:44 49.89708 19.55544 34108 ft 440 kts 196°
2026-05-08 16:44 49.83694 19.53713 34119 ft 440 kts 196°
2026-05-08 16:45 49.77679 19.51885 34123 ft 439 kts 196°
2026-05-08 16:45 49.71704 19.50074 34118 ft 439 kts 196°
2026-05-08 16:46 49.65721 19.48267 34111 ft 437 kts 198°
2026-05-08 16:46 49.59652 19.47158 34106 ft 446 kts 185°
2026-05-08 16:47 49.53419 19.48240 34108 ft 452 kts 179°
2026-05-08 16:47 49.47199 19.49500 34118 ft 450 kts 180°
2026-05-08 16:48 49.41021 19.50696 34110 ft 448 kts 180°
2026-05-08 16:48 49.34842 19.51856 34094 ft 447 kts 180°
2026-05-08 16:49 49.28673 19.53004 34101 ft 446 kts 180°
2026-05-08 16:49 49.22494 19.54150 34095 ft 448 kts 180°
2026-05-08 16:50 49.16297 19.55299 34077 ft 448 kts 181°
2026-05-08 16:50 49.10097 19.56446 34073 ft 449 kts 181°
2026-05-08 16:51 49.03881 19.57594 34071 ft 450 kts 181°
2026-05-08 16:51 48.97658 19.58729 34053 ft 450 kts 181°
2026-05-08 16:52 48.92489 19.59709 34058 ft 449 kts 181°
2026-05-08 16:52 48.85277 19.61015 34060 ft 450 kts 181°
2026-05-08 16:53 48.76991 19.62526 34038 ft 450 kts 181°
2026-05-08 16:53 48.70772 19.63320 34024 ft 447 kts 184°
2026-05-08 16:54 48.64564 19.63929 34035 ft 447 kts 184°
2026-05-08 16:54 48.58358 19.64569 34024 ft 446 kts 183°
2026-05-08 16:55 48.52168 19.65244 34016 ft 446 kts 183°
2026-05-08 16:55 48.46005 19.65931 34031 ft 442 kts 183°
2026-05-08 16:56 48.39885 19.66610 34023 ft 439 kts 183°
2026-05-08 16:56 48.33829 19.67279 34027 ft 437 kts 183°
2026-05-08 16:57 48.27760 19.67946 34008 ft 436 kts 183°
2026-05-08 16:57 48.21716 19.68609 34020 ft 435 kts 183°
2026-05-08 16:58 48.15677 19.69269 34024 ft 435 kts 183°
2026-05-08 16:58 48.09659 19.69926 34027 ft 436 kts 183°
2026-05-08 16:59 48.03585 19.70587 34030 ft 439 kts 183°
2026-05-08 16:59 47.97478 19.71251 34014 ft 440 kts 182°
2026-05-08 17:00 47.91351 19.71918 34030 ft 442 kts 182°
2026-05-08 17:00 47.85203 19.72583 34026 ft 444 kts 182°
2026-05-08 17:01 47.79071 19.73597 34009 ft 448 kts 178°
2026-05-08 17:01 47.72899 19.75035 34014 ft 449 kts 177°
2026-05-08 17:02 47.66728 19.76490 34019 ft 448 kts 177°
2026-05-08 17:02 47.60555 19.77904 34022 ft 448 kts 178°
2026-05-08 17:03 47.54402 19.79288 34013 ft 447 kts 177°
2026-05-08 17:03 47.48259 19.80662 34018 ft 445 kts 177°
2026-05-08 17:04 47.42130 19.82028 34018 ft 444 kts 177°
2026-05-08 17:04 47.36062 19.83379 34021 ft 443 kts 177°
2026-05-08 17:05 47.29961 19.84734 34015 ft 442 kts 177°
2026-05-08 17:05 47.23875 19.86083 34019 ft 441 kts 177°
2026-05-08 17:06 47.17809 19.87424 34012 ft 441 kts 177°
2026-05-08 17:06 47.11743 19.88762 34018 ft 440 kts 177°
2026-05-08 17:07 47.05678 19.90096 34024 ft 440 kts 177°
2026-05-08 17:07 46.99620 19.91426 34015 ft 441 kts 177°
2026-05-08 17:08 46.93548 19.92756 34026 ft 441 kts 177°
2026-05-08 17:08 46.88503 19.93859 34006 ft 441 kts 177°
2026-05-08 17:09 46.83745 19.94897 34016 ft 442 kts 177°
2026-05-08 17:09 46.77665 19.96221 34015 ft 442 kts 177°
2026-05-08 17:10 46.71565 19.97547 34026 ft 443 kts 177°
2026-05-08 17:10 46.65448 19.98872 34009 ft 444 kts 177°
2026-05-08 17:11 46.59326 20.00197 34022 ft 445 kts 177°
2026-05-08 17:11 46.53196 20.01520 34023 ft 445 kts 177°
2026-05-08 17:12 46.47054 20.02843 34017 ft 445 kts 177°
2026-05-08 17:12 46.40925 20.04160 34014 ft 444 kts 176°
2026-05-08 17:13 46.34809 20.05471 34019 ft 444 kts 176°
2026-05-08 17:13 46.28740 20.06769 34019 ft 443 kts 176°
2026-05-08 17:14 46.22651 20.08069 34020 ft 442 kts 176°
2026-05-08 17:14 46.16563 20.09407 34008 ft 443 kts 173°
2026-05-08 17:15 46.10617 20.12016 34016 ft 448 kts 166°
2026-05-08 17:15 46.04741 20.14976 34018 ft 447 kts 166°
2026-05-08 17:16 45.99266 20.17693 34016 ft 447 kts 166°
2026-05-08 17:16 45.93369 20.20564 34006 ft 447 kts 166°
2026-05-08 17:17 45.87464 20.23412 34010 ft 448 kts 166°
2026-05-08 17:17 45.81546 20.26256 34008 ft 449 kts 166°
2026-05-08 17:18 45.75615 20.29102 34012 ft 450 kts 166°
2026-05-08 17:18 45.69672 20.31947 34006 ft 450 kts 166°
2026-05-08 17:19 45.63752 20.34777 33999 ft 451 kts 165°
2026-05-08 17:19 45.57749 20.37639 34013 ft 452 kts 165°
2026-05-08 17:20 45.51781 20.40478 33995 ft 453 kts 165°
2026-05-08 17:20 45.46280 20.43090 34003 ft 453 kts 165°
2026-05-08 17:21 45.40292 20.45926 34002 ft 453 kts 165°
2026-05-08 17:21 45.34310 20.48754 34003 ft 453 kts 165°
2026-05-08 17:22 45.28333 20.51572 33990 ft 452 kts 165°
2026-05-08 17:22 45.22358 20.54385 33999 ft 452 kts 165°
2026-05-08 17:23 45.16392 20.57186 34000 ft 451 kts 165°
2026-05-08 17:23 45.10468 20.59960 33999 ft 451 kts 165°
2026-05-08 17:24 45.04511 20.62745 33997 ft 451 kts 165°
2026-05-08 17:24 44.98560 20.65521 33998 ft 450 kts 165°
2026-05-08 17:25 44.92600 20.68295 33992 ft 450 kts 164°
2026-05-08 17:25 44.86644 20.71061 33998 ft 450 kts 164°
2026-05-08 17:26 44.80689 20.73821 33995 ft 451 kts 164°
2026-05-08 17:26 44.74720 20.76581 33994 ft 451 kts 164°
2026-05-08 17:27 44.68814 20.79409 33994 ft 452 kts 162°
2026-05-08 17:27 44.62926 20.82554 33983 ft 452 kts 161°
2026-05-08 17:28 44.57064 20.85720 33991 ft 451 kts 161°
2026-05-08 17:28 44.51191 20.88846 33994 ft 450 kts 161°
2026-05-08 17:29 44.45337 20.91930 33993 ft 449 kts 161°
2026-05-08 17:29 44.39474 20.95004 33992 ft 449 kts 161°
2026-05-08 17:30 44.33672 20.98040 33995 ft 448 kts 161°
2026-05-08 17:30 44.27829 21.01092 33994 ft 448 kts 161°
2026-05-08 17:31 44.21981 21.04141 34005 ft 449 kts 161°
2026-05-08 17:31 44.16121 21.07190 34003 ft 449 kts 161°
2026-05-08 17:32 44.10251 21.10237 34008 ft 450 kts 161°
2026-05-08 17:32 44.04361 21.13288 34011 ft 452 kts 161°
2026-05-08 17:33 43.98499 21.16318 34013 ft 453 kts 161°
2026-05-08 17:33 43.92584 21.19370 34011 ft 454 kts 161°
2026-05-08 17:34 43.86656 21.22421 34017 ft 455 kts 161°
2026-05-08 17:34 43.80720 21.25470 34021 ft 455 kts 161°
2026-05-08 17:35 43.74767 21.28522 34021 ft 455 kts 161°
2026-05-08 17:35 43.68857 21.31544 34020 ft 456 kts 161°
2026-05-08 17:36 43.62900 21.34585 34026 ft 456 kts 161°
2026-05-08 17:36 43.56934 21.37624 34025 ft 456 kts 161°
2026-05-08 17:37 43.50970 21.40655 34022 ft 456 kts 161°
2026-05-08 17:37 43.45049 21.43658 34025 ft 456 kts 161°
2026-05-08 17:38 43.39086 21.46676 34024 ft 456 kts 161°
2026-05-08 17:38 43.33123 21.49688 34036 ft 457 kts 161°
2026-05-08 17:39 43.28150 21.52195 34033 ft 458 kts 161°
2026-05-08 17:39 43.22171 21.55203 34042 ft 458 kts 161°
2026-05-08 17:40 43.16181 21.58210 34029 ft 459 kts 161°
2026-05-08 17:40 43.10177 21.61219 34042 ft 459 kts 161°
2026-05-08 17:41 43.04162 21.64227 34035 ft 460 kts 161°
2026-05-08 17:41 42.98136 21.67235 34034 ft 461 kts 161°
2026-05-08 17:42 42.92125 21.70138 34040 ft 460 kts 163°
2026-05-08 17:42 42.86012 21.72812 34035 ft 461 kts 164°
2026-05-08 17:43 42.79909 21.75453 34037 ft 460 kts 164°
2026-05-08 17:43 42.73791 21.78131 34042 ft 461 kts 164°
2026-05-08 17:44 42.67694 21.80815 34027 ft 461 kts 163°
2026-05-08 17:44 42.61583 21.83502 34042 ft 461 kts 163°
2026-05-08 17:45 42.55505 21.86169 34035 ft 462 kts 163°
2026-05-08 17:45 42.49380 21.88850 34035 ft 463 kts 164°
2026-05-08 17:46 42.43241 21.91531 34036 ft 463 kts 163°
2026-05-08 17:46 42.37102 21.94207 34035 ft 464 kts 163°
2026-05-08 17:47 42.30953 21.96882 34038 ft 464 kts 163°
2026-05-08 17:47 42.25828 21.99107 34043 ft 465 kts 163°
2026-05-08 17:48 42.18638 22.02223 34035 ft 464 kts 163°
2026-05-08 17:48 42.12532 22.04863 34040 ft 463 kts 163°
2026-05-08 17:49 42.06394 22.07512 34039 ft 462 kts 163°
2026-05-08 17:49 42.00301 22.10256 34040 ft 462 kts 162°
2026-05-08 17:50 41.94253 22.13194 34044 ft 461 kts 161°
2026-05-08 17:50 41.88271 22.16107 34034 ft 458 kts 161°
2026-05-08 17:51 41.82267 22.18986 34029 ft 457 kts 161°
2026-05-08 17:51 41.76279 22.21839 34048 ft 456 kts 161°
2026-05-08 17:52 41.70288 22.24686 34062 ft 457 kts 161°
2026-05-08 17:53 41.61164 22.29013 34085 ft 465 kts 162°
2026-05-08 17:53 41.55106 22.31881 34051 ft 463 kts 162°
2026-05-08 17:54 41.49038 22.34747 34062 ft 463 kts 162°
2026-05-08 17:54 41.42945 22.37618 34058 ft 464 kts 162°
2026-05-08 17:55 41.36838 22.40491 34042 ft 466 kts 162°
2026-05-08 17:55 41.30711 22.43367 34054 ft 467 kts 162°
2026-05-08 17:56 41.24575 22.46243 34065 ft 467 kts 162°
2026-05-08 17:56 41.18483 22.49093 34053 ft 466 kts 162°
2026-05-08 17:57 41.12360 22.51952 34055 ft 466 kts 162°
2026-05-08 17:57 41.06298 22.55085 34069 ft 467 kts 159°
2026-05-08 17:58 41.00290 22.58382 34061 ft 467 kts 159°
2026-05-08 17:58 40.94316 22.61633 34049 ft 467 kts 160°
2026-05-08 17:59 40.88288 22.64865 34059 ft 467 kts 160°
2026-05-08 17:59 40.82249 22.68079 34064 ft 467 kts 160°
2026-05-08 18:00 40.76248 22.71265 34061 ft 468 kts 160°
2026-05-08 18:00 40.67155 22.76083 34051 ft 470 kts 161°
2026-05-08 18:01 40.61065 22.79301 34058 ft 471 kts 161°
2026-05-08 18:01 40.54969 22.82517 34055 ft 473 kts 161°
2026-05-08 18:02 40.49880 22.85198 34052 ft 474 kts 161°
2026-05-08 18:02 40.42746 22.88948 34052 ft 476 kts 161°
2026-05-08 18:03 40.36591 22.92177 34046 ft 476 kts 161°
2026-05-08 18:03 40.30429 22.95403 34053 ft 476 kts 161°
2026-05-08 18:04 40.24265 22.98624 34044 ft 476 kts 161°
2026-05-08 18:04 40.18142 23.01816 34061 ft 477 kts 162°
2026-05-08 18:05 40.11933 23.05047 34055 ft 477 kts 162°
2026-05-08 18:05 40.05791 23.08237 34058 ft 478 kts 162°
2026-05-08 18:06 39.99601 23.11447 34049 ft 479 kts 163°
2026-05-08 18:06 39.93386 23.14661 34054 ft 481 kts 163°
2026-05-08 18:07 39.87158 23.17877 34072 ft 482 kts 163°
2026-05-08 18:07 39.80915 23.21095 34055 ft 483 kts 163°
2026-05-08 18:08 39.74653 23.24316 34057 ft 484 kts 164°
2026-05-08 18:08 39.68380 23.27536 34051 ft 485 kts 164°
2026-05-08 18:09 39.62089 23.30759 34054 ft 486 kts 164°
2026-05-08 18:09 39.55824 23.33963 34022 ft 486 kts 164°
2026-05-08 18:10 39.49522 23.37179 34042 ft 487 kts 165°
2026-05-08 18:10 39.44274 23.39853 34050 ft 487 kts 165°
2026-05-08 18:11 39.40656 23.41693 34045 ft 488 kts 165°
2026-05-08 18:11 39.34342 23.44898 34021 ft 487 kts 165°
2026-05-08 18:12 39.28066 23.48083 34013 ft 486 kts 166°
2026-05-08 18:12 39.21762 23.51274 34019 ft 486 kts 166°
2026-05-08 18:13 39.15469 23.54452 33899 ft 487 kts 166°
2026-05-08 18:13 39.12308 23.56043 33632 ft 490 kts 166°
2026-05-08 18:13 39.09114 23.57651 33295 ft 493 kts 167°
2026-05-08 18:14 39.05902 23.59268 32981 ft 496 kts 167°
2026-05-08 18:14 39.02674 23.60890 32505 ft 501 kts 167°
2026-05-08 18:14 38.99431 23.62523 31991 ft 497 kts 167°
2026-05-08 18:14 38.96242 23.64122 31478 ft 487 kts 169°
2026-05-08 18:15 38.93055 23.65349 30978 ft 470 kts 178°
2026-05-08 18:15 38.89856 23.65920 30494 ft 462 kts 183°
2026-05-08 18:15 38.86644 23.66341 29965 ft 465 kts 184°
2026-05-08 18:15 38.83412 23.66762 29628 ft 472 kts 183°
2026-05-08 18:16 38.80112 23.67201 29164 ft 481 kts 183°
2026-05-08 18:16 38.76751 23.67667 28713 ft 488 kts 182°
2026-05-08 18:16 38.73411 23.68150 28255 ft 486 kts 182°
2026-05-08 18:16 38.70081 23.68650 27804 ft 479 kts 182°
2026-05-08 18:17 38.66790 23.69141 27351 ft 476 kts 182°
2026-05-08 18:17 38.63490 23.69623 26621 ft 476 kts 181°
2026-05-08 18:17 38.60178 23.70109 25639 ft 479 kts 181°
2026-05-08 18:17 38.56877 23.70597 24942 ft 475 kts 181°
2026-05-08 18:18 38.53613 23.71080 24232 ft 471 kts 181°
2026-05-08 18:18 38.50366 23.71558 23553 ft 467 kts 181°
2026-05-08 18:18 38.47143 23.72030 22741 ft 462 kts 181°
2026-05-08 18:18 38.44006 23.72489 22065 ft 456 kts 181°
2026-05-08 18:19 38.40866 23.72946 21363 ft 451 kts 180°
2026-05-08 18:19 38.37767 23.73395 20713 ft 445 kts 180°
2026-05-08 18:19 38.34698 23.73840 20062 ft 441 kts 180°
2026-05-08 18:19 38.31666 23.74280 19418 ft 436 kts 180°
2026-05-08 18:20 38.28663 23.74715 18768 ft 432 kts 180°
2026-05-08 18:20 38.25690 23.75144 18070 ft 429 kts 180°
2026-05-08 18:20 38.22732 23.75572 17446 ft 424 kts 180°
2026-05-08 18:20 38.19808 23.75997 17256 ft 419 kts 180°
2026-05-08 18:21 38.16973 23.76558 17061 ft 407 kts 174°
2026-05-08 18:21 38.14276 23.77431 17073 ft 390 kts 172°
2026-05-08 18:21 38.11709 23.78317 17061 ft 376 kts 172°
2026-05-08 18:21 38.09159 23.79193 17078 ft 386 kts 172°
2026-05-08 18:22 38.06571 23.80071 16878 ft 383 kts 172°
2026-05-08 18:22 38.04033 23.80928 16374 ft 383 kts 172°
2026-05-08 18:22 38.01432 23.81795 15470 ft 391 kts 172°
2026-05-08 18:22 37.98750 23.82664 14402 ft 403 kts 172°
2026-05-08 18:23 37.96004 23.83518 13600 ft 405 kts 172°
2026-05-08 18:23 37.93335 23.84503 13352 ft 396 kts 161°
2026-05-08 18:23 37.91048 23.86387 13198 ft 393 kts 141°
2026-05-08 18:23 37.89420 23.89079 13096 ft 387 kts 120°
2026-05-08 18:24 37.88508 23.92230 13078 ft 375 kts 107°
2026-05-08 18:24 37.87864 23.95368 13063 ft 361 kts 105°
2026-05-08 18:24 37.87284 23.98399 13058 ft 348 kts 105°
2026-05-08 18:24 37.86808 24.01336 13034 ft 336 kts 94°
2026-05-08 18:25 37.87064 24.04202 13079 ft 320 kts 71°
2026-05-08 18:25 37.87541 24.05940 13034 ft 312 kts 66°
2026-05-08 18:25 37.88328 24.08471 12861 ft 306 kts 65°
2026-05-08 18:25 37.89136 24.10983 12369 ft 313 kts 65°
2026-05-08 18:26 37.90255 24.14428 11746 ft 322 kts 65°
2026-05-08 18:26 37.90831 24.16193 11545 ft 321 kts 65°
2026-05-08 18:26 37.91684 24.18797 11303 ft 318 kts 65°
2026-05-08 18:26 37.92515 24.21332 11191 ft 310 kts 65°
2026-05-08 18:27 37.93330 24.23827 11045 ft 304 kts 65°
2026-05-08 18:27 37.93878 24.25503 10784 ft 307 kts 65°
2026-05-08 18:27 37.95265 24.28631 10212 ft 307 kts 40°
2026-05-08 18:27 37.96926 24.30239 9972 ft 298 kts 27°
2026-05-08 18:28 37.98679 24.31617 9688 ft 295 kts 25°
2026-05-08 18:28 38.00439 24.32962 9371 ft 295 kts 25°
2026-05-08 18:28 38.02199 24.34295 9094 ft 293 kts 25°
2026-05-08 18:28 38.03933 24.35598 8999 ft 285 kts 25°
2026-05-08 18:29 38.05599 24.36856 8987 ft 272 kts 25°
2026-05-08 18:29 38.07191 24.38067 8970 ft 262 kts 25°
2026-05-08 18:29 38.08721 24.39236 8986 ft 251 kts 25°
2026-05-08 18:29 38.10203 24.40371 8969 ft 245 kts 25°
2026-05-08 18:30 38.11669 24.41492 8952 ft 248 kts 24°
2026-05-08 18:30 38.13169 24.42608 9005 ft 253 kts 25°
2026-05-08 18:30 38.14751 24.43619 8997 ft 254 kts 12°
2026-05-08 18:30 38.16431 24.43816 8944 ft 237 kts 342°
2026-05-08 18:31 38.17888 24.42956 8589 ft 229 kts 312°
2026-05-08 18:31 38.18721 24.41284 8180 ft 226 kts 281°
2026-05-08 18:31 38.18707 24.39318 7909 ft 224 kts 258°
2026-05-08 18:31 38.18332 24.37406 7703 ft 222 kts 255°
2026-05-08 18:32 38.17932 24.35521 7475 ft 220 kts 255°
2026-05-08 18:32 38.17535 24.33661 7192 ft 221 kts 255°
2026-05-08 18:32 38.17137 24.31790 7040 ft 220 kts 255°
2026-05-08 18:32 38.16733 24.29877 7037 ft 225 kts 255°
2026-05-08 18:33 38.16331 24.27973 6989 ft 220 kts 255°
2026-05-08 18:33 38.15938 24.26093 6778 ft 221 kts 255°
2026-05-08 18:33 38.15539 24.24214 6604 ft 218 kts 255°
2026-05-08 18:33 38.15148 24.22348 6282 ft 221 kts 255°
2026-05-08 18:34 38.14747 24.20426 5848 ft 230 kts 255°
2026-05-08 18:34 38.14343 24.18407 5349 ft 240 kts 253°
2026-05-08 18:34 38.13561 24.16515 4870 ft 248 kts 232°
2026-05-08 18:34 38.12566 24.14697 4369 ft 254 kts 240°
2026-05-08 18:35 38.11761 24.12678 4094 ft 253 kts 244°
2026-05-08 18:35 38.11076 24.10675 4036 ft 243 kts 245°
2026-05-08 18:35 38.10227 24.08923 3908 ft 234 kts 222°
2026-05-08 18:35 38.08862 24.07815 3679 ft 232 kts 214°
2026-05-08 18:36 38.07575 24.06605 3453 ft 230 kts 218°
2026-05-08 18:36 38.06302 24.05356 3141 ft 231 kts 217°
2026-05-08 18:36 38.05013 24.04128 2827 ft 232 kts 217°
2026-05-08 18:36 38.03720 24.02900 2521 ft 233 kts 217°
2026-05-08 18:37 38.02420 24.01661 2214 ft 234 kts 216°
2026-05-08 18:37 38.01131 24.00436 1870 ft 227 kts 216°
2026-05-08 18:37 37.99899 23.99263 1605 ft 215 kts 216°
2026-05-08 18:37 37.98752 23.98171 1324 ft 196 kts 216°
2026-05-08 18:38 37.97713 23.97182 1069 ft 181 kts 217°
2026-05-08 18:38 37.96754 23.96274 872 ft 166 kts 216°
2026-05-08 18:38 37.95867 23.95422 665 ft 152 kts 218°
2026-05-08 18:38 37.95073 23.94674 659 ft 134 kts 217°
2026-05-08 18:39 37.94351 23.93948 1145 ft 131 kts 219°